Location: Melara
(45.0500°N, 11.1833°E)
Time: 21:07:45
(UTC+00:00)

USA 215 - Pass Details

Date: 26 May 2022
Orbit: 1099 x 1108 km, 123.0° (Epoch: 10 June)

Event Time Altitude Azimuth Distance (km) Brightness Sun altitude
Rises 00:17:17 0° 55° (NE) 3,924 7.0 -22.2°
Reaches altitude 10° 00:19:55 10° 48° (NE) 2,966 6.3 -22.1°
Maximum altitude 00:25:52 39° 342° (NNW) 1,598 4.5 -21.8°
Drops below altitude 10° 00:31:50 10° 277° (W) 2,967 5.4 -21.4°
Sets 00:34:28 0° 270° (W) 3,925 6.0 -21.3°
